Station Historical Data
Daily Summary for May 24, 2017 Units:  English    Metric   Both
« Previous Day
Next Day »
Daily Weekly Monthly Yearly Custom
  High: Low: Average:
Temperature: 79.2 °F 56.5 °F 67.6 °F
Dew Point: 53.3 °F 42.2 °F 48.3 °F
Humidity: 78% 30% 53%
Wind Speed: 11.0mph 0.0mph 2.7mph
Wind Gust: 16.0mph - -
Wind- - SE
Pressure: 29.73 in 29.57 in -
Precipitation: 0.00 in    
Historical Graphs
 
 
Tabular Data for May 24, 2017
Time Temperature Dew Point Pressure Wind Wind Speed Wind Gust Humidity Rainfall Rate (Hourly)
00:00 62.4 °F 50.9 °F 29.73 in ENE 1.0 mph 8.0 mph 66% 0.00 in
00:05 62.2 °F 50.7 °F 29.73 in East 3.0 mph 8.0 mph 66% 0.00 in
00:10 61.9 °F 50.8 °F 29.73 in ENE 1.0 mph 6.0 mph 67% 0.00 in
00:15 61.8 °F 50.3 °F 29.73 in ENE 2.0 mph 8.0 mph 66% 0.00 in
00:20 61.7 °F 50.6 °F 29.73 in East 2.0 mph 8.0 mph 67% 0.00 in
00:25 61.6 °F 50.5 °F 29.73 in East 2.0 mph 6.0 mph 67% 0.00 in
00:30 61.3 °F 50.6 °F 29.73 in East 2.0 mph 3.0 mph 68% 0.00 in
00:35 61.0 °F 50.4 °F 29.72 in East 1.0 mph 3.0 mph 68% 0.00 in
00:40 60.9 °F 50.3 °F 29.72 in East 2.0 mph 5.0 mph 68% 0.00 in
00:45 60.8 °F 50.2 °F 29.72 in ENE 2.0 mph 6.0 mph 68% 0.00 in
00:50 60.8 °F 49.8 °F 29.72 in ENE 2.0 mph 5.0 mph 67% 0.00 in
00:55 60.9 °F 49.9 °F 29.72 in ENE 1.0 mph 6.0 mph 67% 0.00 in
01:00 60.9 °F 49.9 °F 29.72 in ENE 4.0 mph 8.0 mph 67% 0.00 in
01:05 60.8 °F 49.8 °F 29.72 in East 2.0 mph 8.0 mph 67% 0.00 in
01:10 60.8 °F 49.8 °F 29.72 in East 2.0 mph 6.0 mph 67% 0.00 in
01:15 60.7 °F 49.7 °F 29.72 in East 1.0 mph 3.0 mph 67% 0.00 in
01:20 60.7 °F 49.7 °F 29.72 in East 1.0 mph 5.0 mph 67% 0.00 in
01:25 60.6 °F 49.6 °F 29.72 in ENE 3.0 mph 3.0 mph 67% 0.00 in
01:30 60.7 °F 49.7 °F 29.71 in East 2.0 mph 5.0 mph 67% 0.00 in
01:40 60.4 °F 49.8 °F 29.71 in East 2.0 mph 4.0 mph 68% 0.00 in
01:45 60.3 °F 49.7 °F 29.71 in ENE 1.0 mph 3.0 mph 68% 0.00 in
01:50 60.1 °F 49.5 °F 29.71 in ENE 1.0 mph 3.0 mph 68% 0.00 in
01:55 60.0 °F 49.4 °F 29.70 in Calm   2.0 mph 68% 0.00 in
02:00 59.8 °F 49.6 °F 29.69 in Calm   2.0 mph 69% 0.00 in
02:05 59.5 °F 49.3 °F 29.69 in Calm     69% 0.00 in
02:10 59.2 °F 49.4 °F 29.69 in Calm     70% 0.00 in
02:15 59.1 °F 49.3 °F 29.69 in Calm     70% 0.00 in
02:20 59.0 °F 49.6 °F 29.69 in Calm     71% 0.00 in
02:25 58.9 °F 49.5 °F 29.69 in Calm     71% 0.00 in
02:30 58.9 °F 49.5 °F 29.69 in Calm     71% 0.00 in
02:35 58.8 °F 49.4 °F 29.69 in Calm     71% 0.00 in
02:40 58.6 °F 49.6 °F 29.70 in Calm     72% 0.00 in
02:45 58.4 °F 49.4 °F 29.70 in Calm     72% 0.00 in
02:50 58.2 °F 49.2 °F 29.70 in Calm     72% 0.00 in
02:55 58.1 °F 49.5 °F 29.70 in Calm   2.0 mph 73% 0.00 in
03:00 57.9 °F 49.3 °F 29.70 in Calm   2.0 mph 73% 0.00 in
03:05 57.8 °F 49.6 °F 29.70 in Calm     74% 0.00 in
03:10 57.5 °F 49.3 °F 29.71 in Calm     74% 0.00 in
03:15 57.1 °F 49.2 °F 29.71 in Calm     75% 0.00 in
03:20 56.8 °F 49.3 °F 29.70 in Calm     76% 0.00 in
03:25 56.8 °F 49.3 °F 29.70 in Calm     76% 0.00 in
03:30 57.0 °F 49.5 °F 29.69 in Calm     76% 0.00 in
03:35 57.1 °F 49.6 °F 29.69 in Calm     76% 0.00 in
03:40 57.2 °F 49.7 °F 29.69 in Calm     76% 0.00 in
03:45 57.3 °F 49.4 °F 29.69 in Calm     75% 0.00 in
03:50 57.2 °F 49.7 °F 29.69 in Calm     76% 0.00 in
03:55 57.3 °F 49.8 °F 29.69 in Calm     76% 0.00 in
04:00 57.3 °F 49.8 °F 29.69 in Calm     76% 0.00 in
04:05 57.2 °F 49.7 °F 29.69 in Calm     76% 0.00 in
04:10 57.0 °F 49.5 °F 29.69 in Calm     76% 0.00 in
04:15 57.1 °F 49.6 °F 29.69 in Calm     76% 0.00 in
04:20 57.1 °F 50.0 °F 29.69 in Calm     77% 0.00 in
04:25 57.1 °F 50.0 °F 29.69 in Calm     77% 0.00 in
04:30 57.3 °F 49.8 °F 29.69 in Calm     76% 0.00 in
04:35 57.2 °F 49.7 °F 29.69 in Calm     76% 0.00 in
04:40 57.3 °F 49.8 °F 29.69 in Calm     76% 0.00 in
04:45 57.3 °F 49.8 °F 29.68 in Calm     76% 0.00 in
04:50 57.3 °F 49.8 °F 29.68 in Calm     76% 0.00 in
04:55 57.3 °F 49.8 °F 29.68 in Calm     76% 0.00 in
05:00 57.1 °F 50.0 °F 29.68 in Calm     77% 0.00 in
05:05 56.9 °F 49.8 °F 29.68 in Calm     77% 0.00 in
05:10 56.8 °F 49.7 °F 29.68 in Calm     77% 0.00 in
05:15 56.7 °F 49.6 °F 29.68 in Calm     77% 0.00 in
05:20 56.6 °F 49.8 °F 29.67 in Calm     78% 0.00 in
05:25 56.5 °F 49.7 °F 29.67 in Calm     78% 0.00 in
05:30 56.6 °F 49.8 °F 29.67 in Calm     78% 0.00 in
05:35 56.6 °F 49.5 °F 29.68 in Calm     77% 0.00 in
05:40 56.7 °F 49.6 °F 29.68 in Calm   1.0 mph 77% 0.00 in
05:45 56.8 °F 49.7 °F 29.68 in East 1.0 mph 3.0 mph 77% 0.00 in
05:50 56.9 °F 49.8 °F 29.68 in Calm   2.0 mph 77% 0.00 in
05:55 57.0 °F 49.9 °F 29.68 in East 1.0 mph 2.0 mph 77% 0.00 in
06:00 57.0 °F 49.5 °F 29.68 in East 1.0 mph 3.0 mph 76% 0.00 in
06:05 57.1 °F 49.6 °F 29.68 in Calm   3.0 mph 76% 0.00 in
06:10 57.1 °F 50.0 °F 29.68 in Calm   2.0 mph 77% 0.00 in
06:15 57.1 °F 50.0 °F 29.68 in Calm   2.0 mph 77% 0.00 in
06:20 57.1 °F 50.0 °F 29.68 in Calm     77% 0.00 in
06:25 57.1 °F 50.0 °F 29.68 in Calm     77% 0.00 in
06:30 57.2 °F 49.7 °F 29.68 in Calm   3.0 mph 76% 0.00 in
06:35 57.3 °F 50.1 °F 29.68 in Calm   3.0 mph 77% 0.00 in
06:40 57.4 °F 49.9 °F 29.68 in Calm     76% 0.00 in
06:45 57.5 °F 50.0 °F 29.68 in Calm     76% 0.00 in
06:50 57.6 °F 50.1 °F 29.68 in Calm     76% 0.00 in
06:55 57.8 °F 50.3 °F 29.68 in Calm     76% 0.00 in
07:00 58.0 °F 50.5 °F 29.68 in Calm     76% 0.00 in
07:05 58.0 °F 50.5 °F 29.68 in Calm     76% 0.00 in
07:10 58.1 °F 50.2 °F 29.68 in Calm     75% 0.00 in
07:15 58.4 °F 50.5 °F 29.67 in Calm     75% 0.00 in
07:20 58.6 °F 50.3 °F 29.67 in East 2.0 mph 3.0 mph 74% 0.00 in
07:25 58.9 °F 50.6 °F 29.68 in East 1.0 mph 3.0 mph 74% 0.00 in
07:30 59.2 °F 50.5 °F 29.67 in Calm   5.0 mph 73% 0.00 in
07:35 59.6 °F 50.6 °F 29.67 in Calm   5.0 mph 72% 0.00 in
07:40 59.9 °F 50.5 °F 29.67 in Calm   3.0 mph 71% 0.00 in
07:45 60.2 °F 50.4 °F 29.68 in Calm     70% 0.00 in
07:50 60.4 °F 50.2 °F 29.68 in Calm   2.0 mph 69% 0.00 in
07:55 60.3 °F 50.1 °F 29.68 in SSE 1.0 mph 4.0 mph 69% 0.00 in
08:00 60.2 °F 49.6 °F 29.69 in SSE 1.0 mph 4.0 mph 68% 0.00 in
08:05 60.4 °F 49.8 °F 29.69 in SSE 1.0 mph 3.0 mph 68% 0.00 in
08:10 60.8 °F 50.6 °F 29.69 in Calm     69% 0.00 in
08:15 61.0 °F 50.8 °F 29.68 in Calm   2.0 mph 69% 0.00 in
08:20 61.0 °F 50.4 °F 29.68 in Calm   6.0 mph 68% 0.00 in
08:25 61.3 °F 50.2 °F 29.67 in East 3.0 mph 8.0 mph 67% 0.00 in
08:30 61.6 °F 50.1 °F 29.68 in ESE 2.0 mph 7.0 mph 66% 0.00 in
08:35 61.8 °F 50.3 °F 29.68 in ESE 3.0 mph 7.0 mph 66% 0.00 in
08:40 62.1 °F 50.6 °F 29.68 in Calm   6.0 mph 66% 0.00 in
08:45 62.3 °F 50.4 °F 29.68 in Calm   6.0 mph 65% 0.00 in
08:50 62.9 °F 51.4 °F 29.68 in ESE 2.0 mph 6.0 mph 66% 0.00 in
08:55 63.6 °F 50.8 °F 29.68 in ESE 2.0 mph 7.0 mph 63% 0.00 in
09:00 64.1 °F 50.8 °F 29.68 in ESE 3.0 mph 11.0 mph 62% 0.00 in
09:05 64.8 °F 51.9 °F 29.68 in SE 3.0 mph 11.0 mph 63% 0.00 in
09:10 65.2 °F 51.4 °F 29.68 in SE 3.0 mph 8.0 mph 61% 0.00 in
09:15 65.5 °F 53.0 °F 29.68 in SE 3.0 mph 8.0 mph 64% 0.00 in
09:20 66.1 °F 52.3 °F 29.68 in SE 4.0 mph 10.0 mph 61% 0.00 in
09:25 66.9 °F 53.0 °F 29.67 in East 5.0 mph 5.0 mph 61% 0.00 in
09:30 67.4 °F 53.0 °F 29.67 in ESE 4.0 mph 8.0 mph 60% 0.00 in
09:35 67.7 °F 53.3 °F 29.67 in ENE 2.0 mph 9.0 mph 60% 0.00 in
09:40 67.9 °F 51.6 °F 29.68 in SE 4.0 mph 7.0 mph 56% 0.00 in
09:45 67.6 °F 50.9 °F 29.67 in SE 3.0 mph 9.0 mph 55% 0.00 in
09:50 67.9 °F 50.6 °F 29.67 in SE 4.0 mph 10.0 mph 54% 0.00 in
09:55 69.0 °F 51.7 °F 29.67 in SE 4.0 mph 10.0 mph 54% 0.00 in
10:00 69.9 °F 50.9 °F 29.67 in ESE 4.0 mph 9.0 mph 51% 0.00 in
10:05 69.7 °F 50.8 °F 29.67 in East 6.0 mph 8.0 mph 51% 0.00 in
10:10 69.9 °F 48.2 °F 29.67 in SE 5.0 mph 10.0 mph 46% 0.00 in
10:15 69.6 °F 48.5 °F 29.67 in East 1.0 mph 7.0 mph 47% 0.00 in
10:20 69.5 °F 48.4 °F 29.67 in ESE 3.0 mph 11.0 mph 47% 0.00 in
10:25 69.6 °F 47.3 °F 29.67 in SE 3.0 mph 11.0 mph 45% 0.00 in
10:30 69.9 °F 47.6 °F 29.66 in SE 3.0 mph 8.0 mph 45% 0.00 in
10:35 70.5 °F 46.3 °F 29.66 in ESE 3.0 mph 10.0 mph 42% 0.00 in
10:40 70.2 °F 46.6 °F 29.66 in SSE 2.0 mph 7.0 mph 43% 0.00 in
10:45 70.0 °F 45.2 °F 29.66 in SSW 4.0 mph 9.0 mph 41% 0.00 in
10:50 69.6 °F 42.2 °F 29.66 in SE 5.0 mph 11.0 mph 37% 0.00 in
10:55 69.9 °F 43.1 °F 29.66 in ESE 2.0 mph 12.0 mph 38% 0.00 in
11:00 70.6 °F 46.4 °F 29.66 in ESE 4.0 mph 10.0 mph 42% 0.00 in
11:05 71.4 °F 45.8 °F 29.66 in SE 3.0 mph 9.0 mph 40% 0.00 in
11:10 71.5 °F 45.9 °F 29.66 in SE 7.0 mph 8.0 mph 40% 0.00 in
11:15 71.7 °F 45.4 °F 29.66 in SE 5.0 mph 7.0 mph 39% 0.00 in
11:20 71.0 °F 44.1 °F 29.66 in SSE 4.0 mph 9.0 mph 38% 0.00 in
11:25 71.2 °F 45.6 °F 29.66 in SSE 4.0 mph 9.0 mph 40% 0.00 in
11:30 71.5 °F 43.8 °F 29.66 in South 5.0 mph 11.0 mph 37% 0.00 in
11:35 71.3 °F 42.2 °F 29.65 in SSE 5.0 mph 11.0 mph 35% 0.00 in
11:40 71.4 °F 43.8 °F 29.65 in SE 5.0 mph 10.0 mph 37% 0.00 in
11:45 71.5 °F 44.5 °F 29.65 in SSE 4.0 mph 9.0 mph 38% 0.00 in
11:50 71.4 °F 43.8 °F 29.65 in SSW 3.0 mph 8.0 mph 37% 0.00 in
11:55 71.9 °F 44.2 °F 29.65 in South 3.0 mph 9.0 mph 37% 0.00 in
12:00 72.8 °F 44.3 °F 29.64 in SSE 5.0 mph 9.0 mph 36% 0.00 in
12:05 73.1 °F 42.3 °F 29.64 in South 1.0 mph 7.0 mph 33% 0.00 in
12:10 73.8 °F 42.9 °F 29.64 in ENE 1.0 mph 9.0 mph 33% 0.00 in
12:15 74.0 °F 43.1 °F 29.64 in ESE 4.0 mph 10.0 mph 33% 0.00 in
12:25 74.3 °F 43.3 °F 29.63 in SE 4.0 mph 8.0 mph 33% 0.00 in
12:30 73.8 °F 43.7 °F 29.63 in SE 3.0 mph 9.0 mph 34% 0.00 in
12:35 74.6 °F 47.3 °F 29.63 in ESE 4.0 mph 9.0 mph 38% 0.00 in
12:40 74.9 °F 45.4 °F 29.62 in ENE 7.0 mph 10.0 mph 35% 0.00 in
12:45 74.6 °F 46.6 °F 29.62 in East 4.0 mph 10.0 mph 37% 0.00 in
12:50 74.3 °F 42.5 °F 29.62 in ESE 4.0 mph 10.0 mph 32% 0.00 in
12:55 74.2 °F 46.2 °F 29.62 in NE 4.0 mph 10.0 mph 37% 0.00 in
13:00 74.8 °F 47.5 °F 29.62 in East 2.0 mph 8.0 mph 38% 0.00 in
13:05 74.4 °F 44.2 °F 29.61 in ESE 3.0 mph 10.0 mph 34% 0.00 in
13:10 73.9 °F 43.0 °F 29.61 in SE 2.0 mph 10.0 mph 33% 0.00 in
13:15 74.8 °F 44.5 °F 29.61 in East 4.0 mph 10.0 mph 34% 0.00 in
13:20 75.3 °F 45.7 °F 29.61 in ESE 3.0 mph 9.0 mph 35% 0.00 in
13:25 75.7 °F 46.8 °F 29.61 in ESE 3.0 mph 10.0 mph 36% 0.00 in
13:30 76.1 °F 44.9 °F 29.61 in SE 4.0 mph 13.0 mph 33% 0.00 in
13:35 76.1 °F 45.7 °F 29.61 in ESE 8.0 mph 10.0 mph 34% 0.00 in
13:40 76.4 °F 45.2 °F 29.61 in East 9.0 mph 10.0 mph 33% 0.00 in
13:45 76.5 °F 47.6 °F 29.61 in ESE 5.0 mph 10.0 mph 36% 0.00 in
13:50 76.7 °F 47.0 °F 29.61 in ESE 4.0 mph 10.0 mph 35% 0.00 in
13:55 76.3 °F 45.1 °F 29.61 in ESE 4.0 mph 10.0 mph 33% 0.00 in
14:00 76.0 °F 45.6 °F 29.61 in East 5.0 mph 10.0 mph 34% 0.00 in
14:05 75.8 °F 44.6 °F 29.60 in SE 5.0 mph 8.0 mph 33% 0.00 in
14:10 76.3 °F 45.9 °F 29.60 in SSE 2.0 mph 9.0 mph 34% 0.00 in
14:15 77.5 °F 43.6 °F 29.60 in ESE 4.0 mph 13.0 mph 30% 0.00 in
14:20 77.1 °F 43.3 °F 29.60 in SE 6.0 mph 14.0 mph 30% 0.00 in
14:25 76.0 °F 44.0 °F 29.60 in SSW 8.0 mph 11.0 mph 32% 0.00 in
14:30 75.5 °F 45.2 °F 29.60 in East 2.0 mph 11.0 mph 34% 0.00 in
14:35 75.6 °F 44.5 °F 29.60 in East 10.0 mph 11.0 mph 33% 0.00 in
14:40 75.7 °F 46.1 °F 29.60 in SSE 4.0 mph 10.0 mph 35% 0.00 in
14:45 76.0 °F 46.4 °F 29.60 in East 5.0 mph 14.0 mph 35% 0.00 in
14:50 77.0 °F 46.5 °F 29.60 in ESE 4.0 mph 14.0 mph 34% 0.00 in
14:55 77.0 °F 45.7 °F 29.60 in SE 4.0 mph 12.0 mph 33% 0.00 in
15:00 77.9 °F 47.3 °F 29.59 in SE 4.0 mph 12.0 mph 34% 0.00 in
15:05 78.1 °F 47.4 °F 29.60 in SE 4.0 mph 11.0 mph 34% 0.00 in
15:10 77.5 °F 46.9 °F 29.60 in SE 4.0 mph 11.0 mph 34% 0.00 in
15:15 77.5 °F 46.1 °F 29.60 in ESE 4.0 mph 10.0 mph 33% 0.00 in
15:20 77.8 °F 47.2 °F 29.59 in ENE 7.0 mph 12.0 mph 34% 0.00 in
15:25 77.5 °F 46.1 °F 29.59 in ESE 5.0 mph 9.0 mph 33% 0.00 in
15:30 76.9 °F 46.4 °F 29.59 in SE 8.0 mph 9.0 mph 34% 0.00 in
15:35 77.3 °F 47.5 °F 29.59 in East 2.0 mph 10.0 mph 35% 0.00 in
15:40 78.2 °F 46.7 °F 29.59 in ESE 2.0 mph 8.0 mph 33% 0.00 in
15:45 77.8 °F 46.4 °F 29.59 in ESE 4.0 mph 9.0 mph 33% 0.00 in
15:50 77.2 °F 46.7 °F 29.59 in SE 3.0 mph 9.0 mph 34% 0.00 in
15:55 76.9 °F 46.4 °F 29.59 in SSE 4.0 mph 9.0 mph 34% 0.00 in
16:00 77.2 °F 45.9 °F 29.59 in SE 3.0 mph 9.0 mph 33% 0.00 in
16:05 77.3 °F 44.3 °F 29.59 in East 3.0 mph 9.0 mph 31% 0.00 in
16:10 77.2 °F 43.4 °F 29.58 in East 6.0 mph 10.0 mph 30% 0.00 in
16:15 77.9 °F 46.5 °F 29.58 in SE 4.0 mph 10.0 mph 33% 0.00 in
16:20 78.4 °F 44.4 °F 29.59 in SSE 4.0 mph 13.0 mph 30% 0.00 in
16:25 77.9 °F 47.3 °F 29.58 in SSE 5.0 mph 13.0 mph 34% 0.00 in
16:30 78.2 °F 45.9 °F 29.58 in ESE 3.0 mph 12.0 mph 32% 0.00 in
16:35 78.6 °F 44.6 °F 29.58 in East 6.0 mph 11.0 mph 30% 0.00 in
16:40 79.2 °F 47.6 °F 29.58 in East 9.0 mph 9.0 mph 33% 0.00 in
16:45 78.8 °F 45.6 °F 29.58 in SE 5.0 mph 9.0 mph 31% 0.00 in
16:50 78.4 °F 45.3 °F 29.58 in SE 5.0 mph 10.0 mph 31% 0.00 in
16:55 78.0 °F 44.9 °F 29.58 in SSE 5.0 mph 10.0 mph 31% 0.00 in
17:00 77.9 °F 44.0 °F 29.58 in SSE 1.0 mph 10.0 mph 30% 0.00 in
17:05 77.5 °F 46.1 °F 29.58 in SE 5.0 mph 10.0 mph 33% 0.00 in
17:10 76.9 °F 45.6 °F 29.58 in SSE 5.0 mph 14.0 mph 33% 0.00 in
17:15 76.5 °F 46.0 °F 29.58 in SE 2.0 mph 14.0 mph 34% 0.00 in
17:20 76.4 °F 45.9 °F 29.58 in SSE 5.0 mph 14.0 mph 34% 0.00 in
17:25 76.4 °F 45.9 °F 29.58 in SSE 5.0 mph 11.0 mph 34% 0.00 in
17:30 76.4 °F 46.7 °F 29.58 in SE 4.0 mph 11.0 mph 35% 0.00 in
17:35 76.4 °F 47.5 °F 29.58 in SE 3.0 mph 6.0 mph 36% 0.00 in
17:40 76.2 °F 47.3 °F 29.58 in ESE 11.0 mph 11.0 mph 36% 0.00 in
17:45 75.9 °F 47.0 °F 29.59 in SSE 4.0 mph 12.0 mph 36% 0.00 in
17:50 75.6 °F 45.2 °F 29.58 in SSE 9.0 mph 11.0 mph 34% 0.00 in
17:55 75.6 °F 46.8 °F 29.58 in SE 4.0 mph 9.0 mph 36% 0.00 in
18:05 75.5 °F 47.4 °F 29.58 in SE 1.0 mph 9.0 mph 37% 0.00 in
18:10 75.4 °F 47.3 °F 29.58 in SE 1.0 mph 13.0 mph 37% 0.00 in
18:15 75.3 °F 47.2 °F 29.58 in SSE 5.0 mph 13.0 mph 37% 0.00 in
18:20 75.2 °F 47.1 °F 29.58 in SE 5.0 mph 11.0 mph 37% 0.00 in
18:25 75.0 °F 47.7 °F 29.58 in SE 4.0 mph 9.0 mph 38% 0.00 in
18:30 74.8 °F 48.2 °F 29.58 in ESE 2.0 mph 8.0 mph 39% 0.00 in
18:35 74.6 °F 48.7 °F 29.58 in Calm   8.0 mph 40% 0.00 in
18:40 74.5 °F 48.6 °F 29.57 in SE 1.0 mph 7.0 mph 40% 0.00 in
18:45 74.3 °F 48.4 °F 29.57 in SSE 3.0 mph 7.0 mph 40% 0.00 in
18:50 74.3 °F 48.4 °F 29.58 in SE 4.0 mph 7.0 mph 40% 0.00 in
18:55 74.1 °F 48.2 °F 29.57 in SE 1.0 mph 7.0 mph 40% 0.00 in
19:00 74.0 °F 48.1 °F 29.57 in ESE 4.0 mph 10.0 mph 40% 0.00 in
19:05 73.9 °F 48.1 °F 29.57 in ESE 4.0 mph 7.0 mph 40% 0.00 in
19:10 73.8 °F 47.3 °F 29.57 in SE 2.0 mph 10.0 mph 39% 0.00 in
19:15 73.7 °F 47.2 °F 29.57 in SE 4.0 mph 10.0 mph 39% 0.00 in
19:20 73.7 °F 47.2 °F 29.57 in SE 4.0 mph 11.0 mph 39% 0.00 in
19:25 73.5 °F 47.7 °F 29.58 in SSE 6.0 mph 8.0 mph 40% 0.00 in
19:30 73.3 °F 47.5 °F 29.58 in SSE 2.0 mph 15.0 mph 40% 0.00 in
19:35 73.1 °F 47.3 °F 29.58 in SSE 3.0 mph 8.0 mph 40% 0.00 in
19:40 73.0 °F 47.2 °F 29.58 in SE 4.0 mph 8.0 mph 40% 0.00 in
19:45 73.0 °F 47.2 °F 29.58 in SE 4.0 mph 11.0 mph 40% 0.00 in
19:50 72.9 °F 47.8 °F 29.58 in SE 5.0 mph 16.0 mph 41% 0.00 in
19:55 72.9 °F 47.8 °F 29.59 in SE 6.0 mph 16.0 mph 41% 0.00 in
20:00 72.7 °F 48.3 °F 29.59 in SSE 6.0 mph 13.0 mph 42% 0.00 in
20:05 72.5 °F 48.1 °F 29.59 in SE 5.0 mph 13.0 mph 42% 0.00 in
20:10 72.4 °F 48.0 °F 29.59 in SE 4.0 mph 9.0 mph 42% 0.00 in
20:15 72.2 °F 49.1 °F 29.58 in SE 3.0 mph 7.0 mph 44% 0.00 in
20:20 71.9 °F 48.8 °F 29.58 in East 2.0 mph 9.0 mph 44% 0.00 in
20:25 71.8 °F 48.7 °F 29.58 in SE 2.0 mph 10.0 mph 44% 0.00 in
20:30 71.7 °F 48.6 °F 29.58 in SSE 5.0 mph 9.0 mph 44% 0.00 in
20:35 71.6 °F 48.5 °F 29.58 in ESE 1.0 mph 8.0 mph 44% 0.00 in
20:40 71.4 °F 48.9 °F 29.58 in SE 3.0 mph 8.0 mph 45% 0.00 in
20:45 71.3 °F 48.9 °F 29.59 in SE 3.0 mph 8.0 mph 45% 0.00 in
20:50 71.3 °F 48.9 °F 29.59 in SSE 4.0 mph 10.0 mph 45% 0.00 in
20:55 71.2 °F 49.9 °F 29.60 in SSE 3.0 mph 7.0 mph 47% 0.00 in
21:00 70.8 °F 50.1 °F 29.60 in SSE 4.0 mph 9.0 mph 48% 0.00 in
21:05 70.6 °F 49.4 °F 29.60 in South 9.0 mph 13.0 mph 47% 0.00 in
21:10 70.6 °F 49.4 °F 29.60 in SSE 5.0 mph 13.0 mph 47% 0.00 in
21:15 70.4 °F 49.2 °F 29.59 in SSE 5.0 mph 12.0 mph 47% 0.00 in
21:20 70.4 °F 49.2 °F 29.60 in SE 4.0 mph 12.0 mph 47% 0.00 in
21:25 70.4 °F 49.2 °F 29.60 in SE 4.0 mph 12.0 mph 47% 0.00 in
21:30 70.3 °F 49.1 °F 29.59 in SE 4.0 mph 12.0 mph 47% 0.00 in
21:35 70.3 °F 49.1 °F 29.60 in SE 4.0 mph 10.0 mph 47% 0.00 in
21:45 70.1 °F 48.9 °F 29.59 in SE 4.0 mph 6.0 mph 47% 0.00 in
21:50 70.1 °F 48.9 °F 29.60 in ESE 1.0 mph 7.0 mph 47% 0.00 in
22:00 69.9 °F 49.3 °F 29.59 in ESE 4.0 mph 12.0 mph 48% 0.00 in
22:05 69.9 °F 49.3 °F 29.59 in East 1.0 mph 8.0 mph 48% 0.00 in
22:10 69.8 °F 49.2 °F 29.60 in ESE 4.0 mph 9.0 mph 48% 0.00 in
22:15 69.7 °F 49.1 °F 29.60 in ESE 3.0 mph 9.0 mph 48% 0.00 in
22:20 69.7 °F 49.7 °F 29.60 in SE 4.0 mph 10.0 mph 49% 0.00 in
22:25 69.6 °F 49.6 °F 29.60 in SE 5.0 mph 13.0 mph 49% 0.00 in
22:30 69.6 °F 49.0 °F 29.60 in SE 5.0 mph 13.0 mph 48% 0.00 in
22:35 69.5 °F 49.5 °F 29.60 in ESE 7.0 mph 8.0 mph 49% 0.00 in
22:40 69.4 °F 49.4 °F 29.60 in SE 5.0 mph 13.0 mph 49% 0.00 in
22:45 69.3 °F 49.9 °F 29.60 in SE 5.0 mph 13.0 mph 50% 0.00 in
22:50 69.1 °F 49.7 °F 29.60 in SE 5.0 mph 11.0 mph 50% 0.00 in
22:55 69.1 °F 49.7 °F 29.61 in SSW 1.0 mph 11.0 mph 50% 0.00 in
23:00 68.9 °F 50.0 °F 29.60 in SE 6.0 mph 11.0 mph 51% 0.00 in
23:05 68.8 °F 49.9 °F 29.60 in SE 6.0 mph 13.0 mph 51% 0.00 in
23:10 68.6 °F 50.3 °F 29.60 in SE 6.0 mph 13.0 mph 52% 0.00 in
23:15 68.3 °F 50.5 °F 29.59 in SE 5.0 mph 13.0 mph 53% 0.00 in
23:20 68.1 °F 50.3 °F 29.60 in SE 6.0 mph 16.0 mph 53% 0.00 in
23:25 68.0 °F 50.7 °F 29.60 in SE 5.0 mph 16.0 mph 54% 0.00 in
23:35 67.1 °F 51.8 °F 29.59 in East 1.0 mph 9.0 mph 58% 0.00 in
23:40 66.5 °F 52.2 °F 29.60 in SE 4.0 mph 9.0 mph 60% 0.00 in
23:45 66.4 °F 51.6 °F 29.60 in SE 5.0 mph 14.0 mph 59% 0.00 in
23:50 66.4 °F 52.1 °F 29.60 in SE 5.0 mph 14.0 mph 60% 0.00 in
23:55 66.0 °F 52.2 °F 29.60 in SE 1.0 mph 8.0 mph 61% 0.00 in
Buffalo, New York, USA
Compliments of Weather Underground - 2.5 mb